Log Lane Village, CO

5:58 AM MDT on September 28, 2016 (GMT -0600)
Fort Morgan

Weather History for KFMM - June, 2013

Change the Weather History Date:

Monday, June 3, 2013

  Actual Average (KAKO) Record (KAKO)
Temperature  
Mean Temperature 68 °F 63 °F  
Max Temperature 88 °F 76 °F 95 °F (1958)
Min Temperature 47 °F 49 °F 28 °F (1954)
Degree Days  
Heating Degree Days 0    
Month to date heating degree days  
Cooling Degree Days 2    
Month to date cooling degree days  
Growing Degree Days 18 (Base 50)    
Moisture  
Dew Point 38 °F    
Average Humidity 43    
Maximum Humidity 75    
Minimum Humidity 14    
Precipitation  
Precipitation 0.00 in 0.10 in 1.00 in (1989)
Month to date precipitation 0.30  
Year to date precipitation 6.48  
Sea Level Pressure  
Sea Level Pressure 29.78 in    
Wind  
Wind Speed 9 mph (WNW)    
Max Wind Speed 20 mph    
Max Gust Speed 37 mph    
Visibility 10 miles    
Events      
T = Trace of Precipitation, MM = Missing Value Source: NWS Daily Summary

Daily Weather History Graph

Daily Weather History Graph

Search for Another Location

Airport or City:

Trip Planner

Search our weather history database for the weather conditions in past years. The results will help you decide how hot, cold, wet, or windy it might be!

Date:

Astronomy

Jun. 03, 2013 Rise Set
Actual Time 5:26 AM MDT 8:20 PM MDT
Civil Twilight 4:54 AM MDT 8:53 PM MDT
Nautical Twilight 4:12 AM MDT 9:34 PM MDT
Astronomical Twilight 3:25 AM MDT 10:22 PM MDT
Moon 2:26 AM MDT (6/3) 3:53 PM MDT (6/3)
Length of Visible Light 15h 59m
Length of Day
14h 54m
Waning Crescent, 21% of the Moon is Illuminated
Jun 3
Waning Crescent
Jun 8
New
Jun 16
First Quarter
Jun 23
Full
Jun 29
Last Quarter

Hourly Weather History & Observations

Time (MDT) Temp. Dew Point Humidity Pressure Visibility Wind Dir Wind Speed Gust Speed Precip Events Conditions
12:15 AM 62.6 °F 39.2 °F 42% 29.84 in 10.0 mi SE 11.5 mph 19.6 mph N/A   Clear
12:35 AM 61.7 °F 39.2 °F 43% 29.83 in 10.0 mi SSE 11.5 mph 18.4 mph N/A   Clear
12:55 AM 60.3 °F 39.7 °F 47% 29.83 in 10.0 mi SSE 9.2 mph 17.3 mph N/A   Clear
1:15 AM 59.2 °F 40.1 °F 49% 29.83 in 10.0 mi SSE 10.4 mph - N/A   Clear
1:35 AM 59.4 °F 40.1 °F 49% 29.83 in 10.0 mi SE 6.9 mph - N/A   Clear
1:55 AM 57.4 °F 40.1 °F 53% 29.82 in 10.0 mi SE 5.8 mph - N/A   Clear
2:15 AM 58.1 °F 40.1 °F 51% 29.81 in 10.0 mi SE 5.8 mph - N/A   Clear
2:35 AM 53.4 °F 39.7 °F 60% 29.80 in 10.0 mi ESE 4.6 mph - N/A   Clear
2:55 AM 53.6 °F 39.9 °F 60% 29.80 in 10.0 mi ESE 5.8 mph - N/A   Clear
3:15 AM 50.4 °F 39.7 °F 67% 29.79 in 10.0 mi SE 8.1 mph - N/A   Clear
3:35 AM 49.6 °F 39.4 °F 68% 29.79 in 10.0 mi ESE 5.8 mph - N/A   Clear
3:55 AM 48.2 °F 39.9 °F 73% 29.79 in 10.0 mi ENE 3.5 mph - N/A   Clear
4:15 AM 48.4 °F 40.1 °F 73% 29.79 in 10.0 mi NE 4.6 mph - N/A   Clear
4:35 AM 47.5 °F 39.6 °F 74% 29.79 in 10.0 mi NNE 3.5 mph - N/A   Clear
4:55 AM 47.7 °F 39.9 °F 75% 29.79 in 10.0 mi East 3.5 mph - N/A   Clear
5:15 AM 50.0 °F 40.3 °F 69% 29.79 in 10.0 mi Calm Calm - N/A   Clear
5:35 AM 49.3 °F 40.1 °F 71% 29.79 in 10.0 mi Calm Calm - N/A   Clear
5:55 AM 50.5 °F 40.5 °F 68% 29.79 in 10.0 mi SSW 3.5 mph - N/A   Clear
6:15 AM 50.4 °F 40.1 °F 68% 29.78 in 10.0 mi West 4.6 mph - N/A   Clear
6:35 AM 52.0 °F 42.4 °F 70% 29.78 in 10.0 mi West 5.8 mph - N/A   Clear
6:55 AM 55.0 °F 42.4 °F 63% 29.77 in 10.0 mi WSW 5.8 mph - N/A   Clear
7:15 AM 57.4 °F 40.6 °F 54% 29.78 in 10.0 mi WSW 5.8 mph - N/A   Clear
7:35 AM 59.4 °F 39.6 °F 48% 29.77 in 10.0 mi WSW 9.2 mph - N/A   Clear
7:55 AM 59.9 °F 39.2 °F 46% 29.77 in 10.0 mi WSW 8.1 mph - N/A   Clear
8:15 AM 62.4 °F 40.1 °F 44% 29.78 in 10.0 mi West 8.1 mph - N/A   Clear
8:35 AM 65.3 °F 40.6 °F 40% 29.77 in 10.0 mi West 8.1 mph - N/A   Clear
8:55 AM 68.4 °F 40.3 °F 36% 29.77 in 10.0 mi West 9.2 mph - N/A   Clear
9:15 AM 70.0 °F 39.9 °F 33% 29.78 in 10.0 mi West 10.4 mph - N/A   Clear
9:35 AM 73.2 °F 41.0 °F 31% 29.78 in 10.0 mi West 10.4 mph 17.3 mph N/A   Clear
9:55 AM 76.3 °F 39.9 °F 27% 29.77 in 10.0 mi West 12.7 mph - N/A   Clear
10:15 AM 79.5 °F 38.8 °F 23% 29.76 in 10.0 mi WSW 11.5 mph - N/A   Clear
10:35 AM 82.0 °F 40.1 °F 22% 29.76 in 10.0 mi WSW 10.4 mph - N/A   Clear
10:55 AM 84.9 °F 41.7 °F 22% 29.76 in 10.0 mi West 8.1 mph - N/A   Clear
11:15 AM 88.7 °F 37.0 °F 16% 29.76 in 10.0 mi WSW 8.1 mph - N/A   Clear
11:35 AM - - N/A% 29.75 in 10.0 mi WNW 9.2 mph - N/A   Clear
11:55 AM - - N/A% 29.74 in 10.0 mi West 8.1 mph - N/A   Clear
12:15 PM - - N/A% 29.74 in 10.0 mi West 9.2 mph 20.7 mph N/A   Clear
12:35 PM - - N/A% 29.74 in 10.0 mi NW 10.4 mph 20.7 mph N/A   Clear
12:55 PM - - N/A% 29.74 in 10.0 mi WNW 10.4 mph 21.9 mph N/A   Clear
1:15 PM - - N/A% 29.73 in 10.0 mi WNW 16.1 mph 24.2 mph N/A   Clear
1:35 PM - - N/A% 29.73 in 10.0 mi NW 15.0 mph 23.0 mph N/A   Clear
1:55 PM - - N/A% 29.73 in 10.0 mi West 13.8 mph 20.7 mph N/A   Clear
2:15 PM - - N/A% 29.72 in 10.0 mi WNW 15.0 mph 20.7 mph N/A   Clear
2:35 PM - - N/A% 29.72 in 10.0 mi WNW 15.0 mph 18.4 mph N/A   Clear
2:55 PM - - N/A% 29.72 in 10.0 mi West 9.2 mph - N/A   Clear
3:15 PM - - N/A% 29.72 in 10.0 mi SSE 5.8 mph 36.8 mph N/A   Scattered Clouds
3:35 PM - - N/A% 29.72 in 10.0 mi SSW 6.9 mph - N/A   Clear
3:55 PM - - N/A% 29.71 in 10.0 mi SSE 4.6 mph - N/A   Clear
4:15 PM - - N/A% 29.70 in 10.0 mi SE 9.2 mph 17.3 mph N/A   Clear
4:35 PM - - N/A% 29.71 in 10.0 mi Calm Calm - N/A   Clear
4:55 PM - - N/A% 29.71 in 10.0 mi West 10.4 mph - N/A   Clear
5:15 PM - - N/A% 29.72 in 10.0 mi West 10.4 mph 18.4 mph N/A   Clear
5:35 PM - - N/A% 29.72 in 10.0 mi WNW 8.1 mph - N/A   Clear
5:55 PM - - N/A% 29.72 in 10.0 mi WNW 11.5 mph - N/A   Clear
6:15 PM - - N/A% 29.73 in 10.0 mi West 16.1 mph 24.2 mph N/A   Clear
6:35 PM - - N/A% 29.76 in 10.0 mi NNE 12.7 mph 17.3 mph N/A   Unknown
6:55 PM 80.4 °F 28.9 °F 15% 29.77 in 10.0 mi NE 15.0 mph 27.6 mph N/A   Clear
7:15 PM 78.4 °F 30.0 °F 17% 29.78 in 10.0 mi NE 12.7 mph 18.4 mph N/A   Clear
7:35 PM 77.2 °F 31.1 °F 19% 29.79 in 10.0 mi NE 10.4 mph - N/A   Clear
7:55 PM 76.3 °F 31.8 °F 20% 29.82 in 10.0 mi North 17.3 mph - N/A   Scattered Clouds
8:15 PM 77.0 °F 28.9 °F 17% 29.80 in 10.0 mi NNE 15.0 mph 23.0 mph N/A   Scattered Clouds
8:35 PM 77.0 °F 24.4 °F 14% 29.83 in 10.0 mi North 12.7 mph 16.1 mph N/A   Scattered Clouds
8:55 PM 74.8 °F 30.0 °F 19% 29.83 in 10.0 mi NNE 19.6 mph 25.3 mph N/A   Mostly Cloudy
9:15 PM 75.4 °F 31.8 °F 20% 29.85 in 10.0 mi North 17.3 mph 24.2 mph N/A   Mostly Cloudy
9:35 PM 74.5 °F 32.2 °F 21% 29.85 in 10.0 mi NNW 17.3 mph 27.6 mph N/A   Mostly Cloudy
9:55 PM 72.0 °F 32.0 °F 23% 29.86 in 10.0 mi North 11.5 mph - N/A   Scattered Clouds
10:15 PM 67.6 °F 33.3 °F 28% 29.87 in 10.0 mi North 10.4 mph - N/A   Clear
10:35 PM 64.4 °F 34.0 °F 32% 29.87 in 10.0 mi North 11.5 mph - N/A   Clear
10:55 PM 62.2 °F 34.5 °F 36% 29.88 in 10.0 mi NNW 11.5 mph - N/A   Clear
11:15 PM 63.1 °F 35.2 °F 35% 29.90 in 10.0 mi North 13.8 mph - N/A   Clear
11:35 PM 61.3 °F 39.4 °F 44% 29.90 in 10.0 mi North 13.8 mph - N/A   Clear
11:55 PM 61.0 °F 42.3 °F 50% 29.90 in 10.0 mi North 13.8 mph - N/A   Clear